Location: Unspecified
(17.6330°N, 0.0000°E)
Time: 15:29:49
(UTC+00:00)

Courier 1B Rocket - Pass Details

Date: 01 July 2019
Orbit: 920 x 1202 km, 28.2° (Epoch: 15 July)

Event Time Altitude Azimuth Distance (km) Brightness Sun altitude
Exits shadow 04:01:19 - 296° (WNW) 3,773 7.8 -19.1°
Reaches altitude 10° 04:03:42 10° 302° (WNW) 2,997 7.3 -18.6°
Maximum altitude 04:10:37 42° 11° (N) 1,478 6.3 -17.2°
Drops below altitude 10° 04:17:03 10° 81° (E) 2,797 8.5 -15.9°
Sets 04:19:49 0° 88° (E) 3,705 9.1 -15.4°
